Location: Hauppauge
(40.8260°N, 73.2030°W)
Time: 08:15:55
(UTC-04:00)

Daily predictions for brighter satellites

Satellite Brightness Start Highest point End
(mag) Time Altitude Azimuth Time Altitude Azimuth Time Altitude Azimuth
MSX 4.1 19:01:25 10° S 19:07:09 77° WSW 19:12:56 10° NNW
ATLAS 3B R/B 4.1 19:02:23 10° WSW 19:09:36 44° NW 19:16:37 10° NNE
Cosmos 292 Rocket 4.0 19:05:46 10° SSW 19:10:33 80° WNW 19:15:24 10° NNE
Meteor 1-29 4.5 19:08:58 10° NE 19:11:25 18° E 19:13:50 10° SE
Cosmos 2346 Rocket 4.4 19:06:56 10° N 19:13:01 78° E 19:19:04 10° S
Cosmos 1953 3.6 19:11:56 10° SE 19:14:53 20° E 19:17:50 10° NE
SL-19 R/B 4.4 19:12:12 10° SSE 19:17:49 88° ENE 19:23:43 10° NNW
Helios 1A 3.7 19:17:11 10° SE 19:20:55 32° ENE 19:24:40 10° N
SeaSat 1 4.1 19:18:39 10° ENE 19:20:57 13° ESE 19:23:15 10° SE
Cosmos 2219 Rocket 3.9 19:15:55 10° SW 19:21:04 36° WNW 19:26:16 10° N
Cosmos 1452 Rocket 4.2 19:16:21 10° N 19:21:07 33° ENE 19:25:50 10° SE
METEOR-M 4.3 19:17:41 10° SE 19:22:50 51° ENE 19:28:00 10° N
Cosmos 1805 4.2 19:22:50 10° SSE 19:26:08 26° E 19:29:27 10° NNE
COSMO-SKYMED 1 3.5 19:21:58 10° N 19:26:13 54° WNW 19:30:26 10° SSW
Cosmos 2278 Rocket 3.2 19:21:00 10° NNW 19:26:29 52° WSW 19:31:55 10° S
NOSS 3-2 (A) 3.5 19:20:35 10° SSW 19:26:33 67° ESE 19:33:03 10° NE
Meteor 1-22 Rocket 4.0 19:21:17 10° S 19:26:38 76° E 19:31:55 10° NNE
Cosmos 1441 Rocket 4.5 19:23:11 10° NNW 19:26:46 44° W 19:30:20 10° SSW
H-2A R/B 4.4 19:25:54 12° ESE 19:28:02 17° ENE 19:30:38 10° NNE
Cosmos 1378 3.1 19:25:28 10° N 19:29:11 66° E 19:32:53 10° SSE
ALOS 3.2 19:26:53 10° SE 19:30:50 28° ENE 19:34:48 10° N
Cosmos 2297 3.7 19:25:43 10° NNW 19:31:25 85° ENE 19:37:03 10° SSE
FENGYUN 3A 4.4 19:26:58 10° SE 19:31:38 31° ENE 19:36:20 10° N
Meteor 1-28 Rocket 3.1 19:28:05 10° NNE 19:31:49 81° E 19:35:32 10° S
OAO 3 Rocket 4.0 19:27:28 10° WSW 19:31:53 38° S 19:35:32 14° ESE
ATLAS CENTAUR R/B 3.5 19:27:39 10° SSW 19:32:21 70° SE 19:47:10 10° NE
CZ-4B DEB 4.2 19:33:12 15° ESE 19:34:45 21° ENE 19:37:17 10° NNE
CZ-4C R/B 3.4 19:30:15 10° WSW 19:35:21 43° NW 19:41:07 10° NNE
Meteor 1-24 Rocket 3.8 19:31:18 10° NNW 19:36:59 81° W 19:42:25 10° S
Cosmos 1707 4.5 19:35:38 10° NNW 19:39:11 36° W 19:42:44 10° SSW
Cosmos 2034 Rocket 4.1 19:38:15 10° S 19:44:21 57° E 19:50:31 10° NNE
Cosmos 2369 Rocket 3.7 19:41:14 10° N 19:45:05 18° NE 19:47:05 16° ENE
SJ-6B 3.5 19:42:45 10° S 19:46:38 57° W 19:50:38 10° NNW
Cosmos 1464 Rocket 3.9 19:40:37 10° S 19:46:52 81° E 19:53:05 10° N
Cosmos 1766 Rocket 3.5 19:42:42 10° N 19:47:03 61° E 19:51:21 10° SSE
Timation 1 Rocket 4.3 19:42:27 10° NNW 19:48:27 84° ENE 19:54:26 10° SSE
Cosmos 1603 4.1 19:43:13 10° S 19:48:30 41° ESE 19:53:52 10° NE
FREGAT/IRIS 3.3 19:45:31 10° S 19:48:34 59° W 19:51:39 10° NNW
Cosmos 1758 3.3 19:52:11 10° S 19:56:12 65° E 20:00:17 10° NNE
NOSS 3-3 (A) 4.5 19:51:00 10° NW 19:58:31 86° NE 20:06:27 10° SE
NOSS 3-3 (C) 4.5 19:51:06 10° NW 19:58:37 86° ENE 20:06:30 10° SE
Cosmos 1269 Rocket 4.4 19:54:07 10° S 19:58:58 39° ESE 20:03:51 10° NE
Spot 2 Rocket 3.6 19:56:38 10° S 20:01:40 79° WSW 20:06:44 10° NNW
Cosmos 1048 Rocket 4.5 19:58:39 10° SSE 20:03:29 36° E 20:08:15 10° NE
FengYun 1-2 T 4.1 19:58:18 10° SSE 20:03:48 82° ENE 20:09:19 10° NNW
Cosmos 1076 Rocket 3.8 19:59:39 10° NNW 20:03:58 69° W 20:08:16 10° S
NOSS 3-2 (C) 3.5 19:58:06 10° SW 20:04:10 85° WNW 20:10:50 10° NE
CENTAUR R/B 3.3 19:59:26 10° SSE 20:04:17 26° ESE 20:05:41 24° E
ASTEX 1 3.6 20:00:50 10° NNE 20:05:35 47° E 20:10:17 10° SSE
Helios 1B rocket 2.6 20:01:54 10° N 20:06:00 74° WNW 20:10:06 10° SSW
GPS 2-04 Rocket1 4.4 20:04:36 10° SSW 20:06:26 16° SSE 20:06:26 16° SSE
Cosmos-2242 2.9 20:04:12 10° S 20:08:33 80° E 20:12:57 10° N
SL-8 R/B 4.2 20:06:17 10° SSW 20:10:41 38° SE 20:11:41 34° ESE
Envisat 4.4 20:13:04 21° ENE 20:13:04 21° ENE 20:16:31 10° NNE
In-Cosmos 22 4.4 20:08:57 10° NNW 20:14:44 75° W 20:20:27 10° S
Cosmos 1674 3.1 20:13:23 10° N 20:16:58 43° ENE 20:16:58 43° ENE
Cosmos 1842 Rocket 3.7 20:18:06 38° SE 20:19:12 47° E 20:23:23 10° NNE
Meteor 1-21 Rocket 4.1 20:14:28 10° N 20:20:04 90° ENE 20:25:36 10° S
Cosmos 1500 Rocket 3.7 20:16:59 10° N 20:21:18 50° E 20:21:56 46° ESE
Atlas Centaur 2 4.3 20:14:31 10° WSW 20:21:23 28° SSW 20:26:10 16° SSE
Cosmos 1408 Rocket 4.4 20:17:33 10° NNW 20:21:46 49° W 20:25:55 10° SSW
ASTRO E2 4.4 20:20:14 10° SW 20:23:18 21° S 20:23:32 21° S
Cosmos 2151 4.5 20:21:59 10° NNE 20:24:02 22° NE 20:24:02 22° NE
Cosmos 1346 3.6 20:25:41 10° NNW 20:28:07 54° NNW 20:28:07 54° NNW
ATLAS CENTAUR R/B 4.2 20:27:24 10° W 20:29:20 13° WSW 20:31:11 10° SW
Resurs 01 Rocket 3.2 20:27:58 10° SSW 20:32:03 35° W 20:36:10 10° NNW
ATLAS 5 CENTAUR R/B 2.5 20:29:25 10° SW 20:34:08 56° NW 20:39:15 10° NNE
USA 215 3.7 20:31:58 10° NE 20:38:22 59° NW 20:44:45 10° WSW
CZ-2D R/B 3.8 20:43:01 39° SSW 20:44:08 56° W 20:47:59 10° NNW
SL-16 R/B 4.2 20:40:45 10° WSW 20:45:34 28° NW 20:50:27 10° N
Cosmos 1743 Rocket 4.2 20:45:02 10° NNW 20:49:22 53° W 20:51:26 28° SSW
Cosmos 1953 4.5 20:47:46 10° SW 20:51:10 26° WNW 20:54:34 10° NNW
ERS-1 Rocket 3.3 20:54:53 50° NE 20:54:53 50° NE 20:58:59 10° N
Cosmos 1655 Rocket 4.1 20:51:16 10° N 20:57:04 53° ENE 20:57:04 53° ENE
SeaSat 1 2.5 20:53:59 10° NNE 20:58:56 78° WNW 21:03:51 10° SSW
BREEZE-M DEB (TANK) 3.4 20:51:31 10° WNW 21:01:54 58° N 21:02:28 54° NNE
GP-B 3.5 20:57:36 10° N 21:01:21 60° NNW 21:01:21 60° NNW
H-2A R/B 4.3 21:01:10 30° SW 21:02:05 34° W 21:05:40 10° NNW
Cosmos 1092 Rocket 4.2 20:57:07 10° NNW 21:03:18 70° W 21:06:37 29° S
Cosmos 2142 Rocket 4.4 21:02:43 23° S 21:06:54 89° W 21:13:21 10° N
Cosmos 839 Rocket 4.1 21:00:19 10° NNW 21:08:02 71° NE 21:08:43 67° E
ALOS 4.1 21:04:17 11° SSW 21:08:11 29° W 21:12:16 10° NW
Cosmos 1634 Rocket 4.1 21:11:12 10° SSW 21:17:26 70° W 21:23:39 10° N
Cosmos 2026 Rocket 3.8 21:12:51 10° N 21:18:46 84° NNE 21:18:46 84° NNE
H-2A R/B 4.5 21:31:47 17° N 21:31:47 17° N 21:32:51 10° N
Cosmos 2369 Rocket 2.5 21:24:03 10° NNW 21:28:54 63° WNW 21:28:54 63° WNW
Cosmos 1943 Rocket 3.4 21:31:57 10° NNW 21:35:15 34° N 21:35:15 34° N
CENTAUR R/B 3.2 21:48:22 10° SW 21:59:44 16° NNE 22:01:09 10° NNE
